Location: Unspecified
(0.0000°N, 0.0000°E)
Time: 12:11:35
(UTC+00:00)

Vanguard 2 Rocket - All Passes

Search period start: 30 August 2014 00:00
Search period end: 09 September 2014 00:00
Orbit: 554 x 3336 km, 32.9° (Epoch: 29 August)

Date Brightness Start Highest point End Pass type
(mag) Time Alt. Az. Time Alt. Az. Time Alt. Az.
30 Aug - 01:47:23 10° NW 01:53:09 51° NE 02:03:13 10° ESE visible
30 Aug - 04:00:03 10° W 04:08:07 46° SSW 04:22:06 10° SE visible
30 Aug - 06:17:49 10° WSW 06:27:35 22° SSW 06:40:36 10° SSE daylight
30 Aug - 08:40:02 10° SW 08:51:41 19° S 09:03:59 10° SE daylight
30 Aug - 10:59:32 10° SSW 11:15:56 29° SSE 11:29:09 10° ESE daylight
30 Aug - 13:17:45 10° SW 13:36:05 62° SSE 13:47:07 10° ENE daylight
30 Aug - 15:38:19 10° WSW 15:51:56 47° NW 15:59:46 10° NNE daylight
31 Aug - 00:50:32 10° NNW 00:55:01 27° NE 01:01:42 10° E visible
31 Aug - 03:01:44 10° WNW 03:08:38 61° SSW 03:21:12 10° SE visible
31 Aug - 05:17:38 10° WSW 05:26:24 25° SSW 05:39:08 10° SSE visible
31 Aug - 07:38:46 10° SW 07:48:55 18° S 08:00:37 10° SE daylight
31 Aug - 09:58:47 10° SSW 10:13:45 25° SSE 10:27:24 10° ESE daylight
31 Aug - 12:16:38 10° SW 12:35:24 49° SSE 12:48:02 10° E daylight
31 Aug - 14:36:05 10° WSW 14:52:50 71° NW 15:02:15 10° NE daylight
31 Aug - 17:00:56 10° WNW 17:07:07 16° NW 17:11:47 10° N daylight
31 Aug - 23:55:03 10° NNE 23:56:57 12° NE 23:59:07 10° ENE night (unlit)
01 Sep - 02:03:54 10° NW 02:09:46 89° SW 02:20:25 10° SE visible
01 Sep - 04:18:10 10° W 04:25:54 30° SSW 04:38:03 10° SE visible
01 Sep - 06:37:47 10° SW 06:46:37 18° S 06:57:35 10° SSE daylight
01 Sep - 08:58:12 10° SSW 09:11:11 21° SSE 09:24:26 10° SE daylight
01 Sep - 11:15:49 10° SW 11:34:08 40° SSE 11:48:08 10° E daylight
01 Sep - 13:34:17 10° SW 13:53:07 87° SE 14:04:13 10° NE daylight
01 Sep - 15:56:53 10° W 16:08:20 30° NW 16:15:38 10° NNE daylight
02 Sep - 01:06:29 10° NW 01:11:26 53° NE 01:19:42 10° ESE visible
02 Sep - 03:19:20 10° W 03:26:03 37° SSW 03:37:20 10° SE visible
02 Sep - 05:37:13 10° SW 05:45:00 18° S 05:55:18 10° SSE visible
02 Sep - 07:57:48 10° SSW 08:08:30 18° S 08:20:26 10° SE daylight
02 Sep - 10:15:20 10° SSW 10:32:21 32° SSE 10:47:11 10° E daylight
02 Sep - 12:32:54 10° SW 12:52:45 68° SSE 13:05:36 10° ENE daylight
02 Sep - 14:53:46 10° WSW 15:09:18 47° NW 15:18:32 10° NNE daylight
03 Sep - 00:09:35 10° NNW 00:13:27 26° NE 00:18:51 10° E night (unlit)
03 Sep - 02:21:00 10° WNW 02:26:49 50° SSW 02:36:56 10° SE visible
03 Sep - 04:37:12 10° WSW 04:44:07 20° SSW 04:53:49 10° SSE visible
03 Sep - 06:57:32 10° SSW 07:06:01 16° S 07:16:03 10° SE daylight
03 Sep - 09:15:13 10° SSW 09:30:11 26° SSE 09:44:57 10° ESE daylight
03 Sep - 11:32:00 10° SW 11:51:46 54° SSE 12:06:17 10° ENE daylight
03 Sep - 13:51:19 10° WSW 14:09:47 68° NW 14:20:50 10° NE daylight
03 Sep - 16:16:50 10° WNW 16:24:59 19° NW 16:30:56 10° N daylight
03 Sep - 23:14:10 10° NNE 23:15:26 11° NE 23:16:48 10° NE night (unlit)
04 Sep - 01:23:06 10° WNW 01:28:08 77° SSW 01:36:45 10° SE visible
04 Sep - 03:37:46 10° WSW 03:43:55 23° SSW 03:53:04 10° SSE visible
04 Sep - 05:57:21 10° SSW 06:04:02 15° S 06:12:12 10° SSE daylight
04 Sep - 08:15:26 10° SSW 08:27:48 21° SSE 08:41:18 10° ESE daylight
04 Sep - 10:31:34 10° SW 10:50:19 43° SSE 11:06:04 10° E daylight
04 Sep - 12:49:30 10° SW 13:09:40 89° NW 13:22:35 10° NE daylight
04 Sep - 15:12:27 10° W 15:25:47 31° NW 15:34:25 10° NNE daylight
05 Sep - 00:25:35 10° NW 00:29:56 58° NE 00:36:41 10° ESE night (unlit)
05 Sep - 02:38:51 10° W 02:44:19 29° SSW 02:52:52 10° SSE visible
05 Sep - 04:57:16 10° SW 05:02:45 14° S 05:09:36 10° SSE visible
05 Sep - 07:15:59 10° SSW 07:25:25 17° SSE 07:36:24 10° SE daylight
05 Sep - 09:31:36 10° SSW 09:48:31 34° SSE 10:04:43 10° E daylight
05 Sep - 11:48:20 10° SW 12:08:57 73° SE 12:23:43 10° ENE daylight
05 Sep - 14:09:06 10° WSW 14:26:16 47° NW 14:37:04 10° NNE daylight
05 Sep - 16:39:41 10° NW 16:42:08 11° NW 16:44:21 10° NNW daylight
05 Sep - 23:28:32 10° NNW 23:32:01 26° NE 23:36:31 10° E night (unlit)
06 Sep - 01:40:24 10° W 01:45:16 39° SSW 01:53:04 10° SE visible
06 Sep - 03:57:22 10° SW 04:02:09 15° S 04:08:20 10° SSE visible
06 Sep - 06:16:52 10° SSW 06:23:20 14° S 06:30:57 10° SE daylight
06 Sep - 08:32:06 10° SSW 08:46:30 27° SSE 09:01:58 10° ESE daylight
06 Sep - 10:47:45 10° SW 11:07:44 58° SSE 11:24:06 10° ENE daylight
06 Sep - 13:06:38 10° WSW 13:26:17 66° NW 13:39:08 10° NE daylight
06 Sep - 15:32:28 10° W 15:42:35 21° NW 15:49:52 10° N daylight
06 Sep - 22:32:39 10° NNE 22:33:59 11° NE 22:35:23 10° NE night (unlit)
07 Sep - 00:42:21 10° WNW 00:46:43 62° SSW 00:53:33 10° SE night (unlit)
07 Sep - 02:57:47 10° SW 03:02:12 17° SSW 03:08:09 10° SSE visible
07 Sep - 05:18:02 10° SSW 05:21:44 12° S 05:25:57 10° SSE visible
07 Sep - 07:33:05 10° SSW 07:44:27 21° SSE 07:57:40 10° ESE daylight
07 Sep - 09:47:46 10° SW 10:06:12 46° SSE 10:23:31 10° E daylight
07 Sep - 12:04:59 10° SW 12:25:45 85° NW 12:40:37 10° NE daylight
07 Sep - 14:27:53 10° W 14:42:52 33° NW 14:52:58 10° NNE daylight
07 Sep - 23:44:38 10° NW 23:48:37 67° NE 23:54:08 10° ESE night (unlit)
08 Sep - 01:58:38 10° WSW 02:02:49 21° SSW 02:08:40 10° SSE visible
08 Sep - 04:19:30 10° S 04:20:46 10° S 04:22:07 10° S visible
08 Sep - 06:34:37 10° SSW 06:42:31 15° SSE 06:51:56 10° SE daylight
08 Sep - 08:48:20 10° SSW 09:04:32 36° SSE 09:21:44 10° E daylight
08 Sep - 11:04:08 10° SW 11:24:44 77° SE 11:41:26 10° ENE daylight
08 Sep - 13:24:30 10° WSW 13:42:50 47° NW 13:55:19 10° NNE daylight
08 Sep - 15:54:26 10° NW 15:59:56 13° NNW 16:04:30 10° N daylight
08 Sep - 22:47:16 10° NNW 22:50:42 29° NE 22:54:39 10° E night (unlit)
